Location: Castelnau
(43.6639°N, 0.8431°W)
Time: 15:47:37
(UTC+00:00)

ATLAS 2AS CENTAUR R/B - Pass Details

Date: 13 January 2026
Orbit: 1050 x 1161 km, 63.7° (Epoch: 10 February)

Event Time Altitude Azimuth Distance (km) Brightness Sun altitude
Exits shadow 05:06:37 15° 347° (NNW) 2,507 4.4 -26.2°
Maximum altitude 05:10:40 25° 32° (NNE) 1,964 4.3 -25.5°
Drops below altitude 10° 05:16:08 10° 86° (E) 2,865 6.0 -24.5°
Sets 05:19:18 0° 100° (E) 3,822 7.0 -24.0°
